Tracking 19281 objects as of 16-Nov-2018
HD Live streaming from Space Station
objects crossing your sky now

COSMOS 1634

Track COSMOS 1634 now!
10-day predictions
COSMOS 1634 is classified as:


NORAD ID: 15597
Int'l Code: 1985-022A
Perigee: 962.7 km
Apogee: 1,014.4 km
Inclination: 82.9 °
Period: 104.7 minutes
Semi major axis: 7359 km
RCS: 2.2034 m2 (large)
Launch date: March 14, 1985
Source: Commonwealth of Independent States (former USSR) (CIS)
Launch site: PLESETSK MISSILE AND SPACE COMPLEX (PKMTR)
aabbcc
Your satellite tracking list
Your tracking list is empty




NASA's NSSDC Master Catalog

Two Line Element Set (TLE):
1 15597U 85022A   18319.97176007  .00000062  00000-0  49007-4 0  9995
2 15597  82.9376 109.1896 0035108 204.2835 273.9552 13.75072104689757
Source of the keplerian elements: AFSPC